THORAD AGENA D DEB, 4951

Orbit data source: Space-Track

THORAD AGENA D DEB, 4951 is space debris in SSO originally from a launch on Wed, 08 Apr 1970 UTC launched from the Air Force Western Test Range (AFWTR). Debris objects in space refer to the collection of defunct objects orbiting the Earth. Examples of debris include non-operational satellites, rocket bodies, and fragments generated from explosions, collisions, or faulty payload assembly.

Loading next visibility...
Identifier
4951, 1970-025GM
Orbit
SSO
Country
Flag of USUS
Related business
Manufacturer
Unknown
Mission
Spacecraft
Bus & Motor
Unknown
Mass
Unknown
Launch date (UTC)
1970-04-08 (56 years ago)
Launch vehicle
Unknown
Launch site
Air Force Western Test Range (AFWTR)
Object type
Payload
Rocket body
Debris
Shape & HBR
Unknown shape, 0.1 m
Radar Cross Section
Medium (>0.1 m² and <1 m²)

Expand to show TLE details & history
Last TLE update: 16 hours ago

TLE from 16 hours ago
0 THORAD AGENA D DEB
1 04951U 70025GM  26207.98802782  .00000153  00000-0  26368-3 0  9991
2 04951 100.1844 205.5187 0018378  28.4450  34.1401 13.61266285788250
Epoch: 2026-07-26T23:42Z
TLE epoch observation values (Epoch: 2026-07-26T23:42:45.603Z)
Latitude
61.09674°
Longitude
-113.73655°
Altitude
1,030.166 km
Speed
7.348 km/s
True Right ascension
12h 26m 31s
True Declination
60° 57' 23"
Sunlit
Object was in daylight at epoch
Visualization orbit readout
Latitude
Unknown
Longitude
Unknown
Altitude
Unknown
Speed
Unknown
Apparent Right ascension
Unknown
Apparent Declination
Unknown
Sunlit
N/A
Visualization observer readout
Local Sidereal Time
05:17:11
Azimuth
Unknown
Elevation
Unknown
Doppler factor
Unknown
Orbital elements
Apogee altitude
1,042.017 km
Perigee altitude
1,014.794 km
Semi-major axis
7,406.543 km
Eccentricity
0.00184
Inclination
100.1844°
RAAN
205.5187°
Arg. of periapsis
28.445°
True anomaly
34.25852°
Mean anomaly
34.1401°
Eccentric anomaly
34.19929°
Mean motion
3.40502 °/min
Orbital period
105.73 mins
BSTAR
0.00026368
Loading maneuver chart data...
Computing Atmospheric mass density...

Documentation

Showing up to 5 results
|